Time,TemperatureF,DewpointF,PressureIn,WindDirection,WindDirectionDegrees,WindSpeedMPH,WindSpeedGustMPH,Humidity,HourlyPrecipIn,Conditions,Clouds,dailyrainin,SoftwareType,DateUTC
2013-01-27 00:00:00,13.1,-1.7,30.11,WNW,298,8.0,11.0,51,0.00,CLR,,0.00,WeatherDisplay:10.37,2013-01-27 05:00:00,
2013-01-27 00:01:00,13.1,-1.7,30.11,West,270,8.1,8.1,51,0.00,CLR,,0.00,WeatherDisplay:10.37,2013-01-27 05:01:00,
2013-01-27 00:02:00,13.1,-1.7,30.11,WNW,292,7.8,7.8,51,0.00,CLR,,0.00,WeatherDisplay:10.37,2013-01-27 05:02:00,
2013-01-27 00:07:00,13.1,-1.7,30.11,West,270,10.4,10.4,51,0.00,CLR,,0.00,WeatherDisplay:10.37,2013-01-27 05:07:00,
2013-01-27 00:12:00,13.1,-1.7,30.11,North,360,8.8,8.8,51,0.00,CLR,,0.00,WeatherDisplay:10.37,2013-01-27 05:12:00,
2013-01-27 00:17:00,13.1,-1.7,30.11,West,270,10.4,10.4,51,0.00,CLR,,0.00,WeatherDisplay:10.37,2013-01-27 05:17:00,
2013-01-27 00:22:00,13.1,-1.7,30.11,NW,315,5.8,5.8,51,0.00,CLR,,0.00,WeatherDisplay:10.37,2013-01-27 05:22:00,
2013-01-27 00:27:00,12.9,-1.9,30.11,West,270,8.1,8.1,51,0.00,CLR,,0.00,WeatherDisplay:10.37,2013-01-27 05:27:00,
2013-01-27 00:32:00,13.1,-1.7,30.11,SSW,202,5.8,5.8,51,0.00,CLR,,0.00,WeatherDisplay:10.37,2013-01-27 05:32:00,
2013-01-27 00:37:00,12.9,-1.9,30.11,West,270,9.2,9.2,51,0.00,CLR,,0.00,WeatherDisplay:10.37,2013-01-27 05:37:00,
2013-01-27 00:42:00,12.9,-1.9,30.11,WNW,292,6.9,6.9,51,0.00,CLR,,0.00,WeatherDisplay:10.37,2013-01-27 05:42:00,
2013-01-27 00:47:00,12.9,-1.9,30.11,West,270,10.4,10.4,51,0.00,CLR,,0.00,WeatherDisplay:10.37,2013-01-27 05:47:00,
2013-01-27 00:52:00,12.9,-1.9,30.10,South,180,5.3,5.3,51,0.00,CLR,,0.00,WeatherDisplay:10.37,2013-01-27 05:52:00,
2013-01-27 00:57:00,12.9,-1.9,30.10,NNE,22,7.3,7.3,51,0.00,CLR,,0.00,WeatherDisplay:10.37,2013-01-27 05:57:00,
2013-01-27 01:02:00,12.9,-1.9,30.11,NW,315,6.9,6.9,51,0.00,CLR,,0.00,WeatherDisplay:10.37,2013-01-27 06:02:00,
2013-01-27 01:07:00,12.9,-1.9,30.11,WNW,292,9.2,9.2,51,0.00,CLR,,0.00,WeatherDisplay:10.37,2013-01-27 06:07:00,
2013-01-27 01:12:00,13.1,-1.7,30.11,West,270,4.7,4.7,51,0.00,CLR,,0.00,WeatherDisplay:10.37,2013-01-27 06:12:00,
2013-01-27 01:17:00,12.9,-1.9,30.12,NW,315,4.6,4.6,51,0.00,CLR,,0.00,WeatherDisplay:10.37,2013-01-27 06:17:00,
2013-01-27 01:22:00,12.9,-1.9,30.12,NNW,338,8.1,8.1,51,0.00,CLR,,0.00,WeatherDisplay:10.37,2013-01-27 06:22:00,
2013-01-27 01:27:00,12.9,-1.9,30.13,NW,315,8.1,8.1,51,0.00,CLR,,0.00,WeatherDisplay:10.37,2013-01-27 06:27:00,
2013-01-27 01:32:00,12.9,-1.9,30.13,West,270,3.7,4.3,51,0.00,CLR,,0.00,WeatherDisplay:10.37,2013-01-27 06:32:00,
2013-01-27 01:38:00,12.7,-2.0,30.13,NE,45,4.6,4.6,51,0.00,CLR,,0.00,WeatherDisplay:10.37,2013-01-27 06:38:00,
2013-01-27 01:43:00,12.9,-1.9,30.13,WSW,248,4.6,4.6,51,0.00,CLR,,0.00,WeatherDisplay:10.37,2013-01-27 06:43:00,
2013-01-27 01:48:00,12.7,-1.6,30.13,NW,315,4.6,4.6,52,0.00,CLR,,0.00,WeatherDisplay:10.37,2013-01-27 06:48:00,
2013-01-27 01:53:00,12.7,-1.6,30.14,ENE,68,7.8,7.8,52,0.00,CLR,,0.00,WeatherDisplay:10.37,2013-01-27 06:53:00,
2013-01-27 01:58:00,12.7,-1.6,30.14,SW,225,3.5,3.5,52,0.00,CLR,,0.00,WeatherDisplay:10.37,2013-01-27 06:58:00,
2013-01-27 02:03:00,12.6,-1.7,30.14,North,360,5.8,5.8,52,0.00,CLR,,0.00,WeatherDisplay:10.37,2013-01-27 07:03:00,
2013-01-27 02:08:00,12.6,-1.7,30.14,North,360,3.5,3.5,52,0.00,CLR,,0.00,WeatherDisplay:10.37,2013-01-27 07:08:00,
2013-01-27 02:13:00,12.4,-1.9,30.14,NW,315,4.6,4.6,52,0.00,CLR,,0.00,WeatherDisplay:10.37,2013-01-27 07:13:00,
2013-01-27 02:18:00,12.7,-1.6,30.14,North,360,5.8,5.8,52,0.00,CLR,,0.00,WeatherDisplay:10.37,2013-01-27 07:18:00,
2013-01-27 02:23:00,12.7,-1.6,30.14,SSW,202,4.6,4.6,52,0.00,CLR,,0.00,WeatherDisplay:10.37,2013-01-27 07:23:00,
2013-01-27 02:28:00,12.4,-1.9,30.15,WNW,292,2.3,2.3,52,0.00,CLR,,0.00,WeatherDisplay:10.37,2013-01-27 07:28:00,
2013-01-27 02:33:00,12.4,-1.9,30.15,NNW,338,5.8,5.8,52,0.00,CLR,,0.00,WeatherDisplay:10.37,2013-01-27 07:33:00,
2013-01-27 02:38:00,12.4,-1.9,30.15,West,270,4.2,4.2,52,0.00,CLR,,0.00,WeatherDisplay:10.37,2013-01-27 07:38:00,
2013-01-27 02:43:00,12.4,-1.5,30.15,NE,45,5.8,5.8,53,0.00,CLR,,0.00,WeatherDisplay:10.37,2013-01-27 07:43:00,
2013-01-27 02:48:00,12.4,-1.5,30.15,NE,45,2.3,2.3,53,0.00,CLR,,0.00,WeatherDisplay:10.37,2013-01-27 07:48:00,
2013-01-27 02:53:00,12.4,-1.5,30.16,SE,135,4.6,4.6,53,0.00,CLR,,0.00,WeatherDisplay:10.37,2013-01-27 07:53:00,
2013-01-27 02:58:00,12.4,-1.5,30.16,West,270,10.4,10.4,53,0.00,CLR,,0.00,WeatherDisplay:10.37,2013-01-27 07:58:00,
2013-01-27 03:03:00,12.4,-1.5,30.15,NW,315,6.9,6.9,53,0.00,CLR,,0.00,WeatherDisplay:10.37,2013-01-27 08:03:00,
2013-01-27 03:08:00,12.6,-1.3,30.15,West,270,9.2,9.2,53,0.00,CLR,,0.00,WeatherDisplay:10.37,2013-01-27 08:08:00,
2013-01-27 03:13:00,12.6,-1.3,30.16,NNE,22,4.2,4.2,53,0.00,CLR,,0.00,WeatherDisplay:10.37,2013-01-27 08:13:00,
2013-01-27 03:18:00,12.6,-1.3,30.16,NNW,338,5.8,5.8,53,0.00,CLR,,0.00,WeatherDisplay:10.37,2013-01-27 08:18:00,
2013-01-27 03:23:00,12.6,-1.3,30.16,West,270,3.7,3.7,53,0.00,CLR,,0.00,WeatherDisplay:10.37,2013-01-27 08:23:00,
2013-01-27 03:28:00,12.4,-1.5,30.16,West,270,8.1,8.1,53,0.00,CLR,,0.00,WeatherDisplay:10.37,2013-01-27 08:28:00,
2013-01-27 03:33:00,12.6,-1.3,30.16,West,270,8.1,8.1,53,0.00,CLR,,0.00,WeatherDisplay:10.37,2013-01-27 08:33:00,
2013-01-27 03:38:00,12.6,-1.3,30.16,West,270,4.6,4.6,53,0.00,CLR,,0.00,WeatherDisplay:10.37,2013-01-27 08:38:00,
2013-01-27 03:43:00,12.6,-1.3,30.16,NNW,338,6.3,6.3,53,0.00,CLR,,0.00,WeatherDisplay:10.37,2013-01-27 08:43:00,
2013-01-27 03:48:00,12.6,-1.3,30.16,NNW,338,4.6,4.6,53,0.00,CLR,,0.00,WeatherDisplay:10.37,2013-01-27 08:48:00,
2013-01-27 03:53:00,12.7,-1.2,30.16,West,270,5.8,5.8,53,0.00,CLR,,0.00,WeatherDisplay:10.37,2013-01-27 08:53:00,
2013-01-27 03:58:00,12.7,-1.2,30.16,West,270,3.5,3.5,53,0.00,CLR,,0.00,WeatherDisplay:10.37,2013-01-27 08:58:00,
2013-01-27 04:03:00,12.4,-1.5,30.16,SW,225,3.5,3.5,53,0.00,CLR,,0.00,WeatherDisplay:10.37,2013-01-27 09:03:00,
2013-01-27 04:08:00,12.2,-1.7,30.16,NW,315,3.5,3.5,53,0.00,CLR,,0.00,WeatherDisplay:10.37,2013-01-27 09:08:00,
2013-01-27 04:13:00,12.2,-1.3,30.17,South,180,2.3,2.3,54,0.00,CLR,,0.00,WeatherDisplay:10.37,2013-01-27 09:13:00,
2013-01-27 04:18:00,12.6,-1.3,30.17,West,270,5.8,5.8,53,0.00,CLR,,0.00,WeatherDisplay:10.37,2013-01-27 09:18:00,
2013-01-27 04:23:00,12.4,-1.5,30.17,West,270,2.7,2.7,53,0.00,CLR,,0.00,WeatherDisplay:10.37,2013-01-27 09:23:00,
2013-01-27 04:28:00,12.4,-1.5,30.17,SW,225,5.8,5.8,53,0.00,CLR,,0.00,WeatherDisplay:10.37,2013-01-27 09:28:00,
2013-01-27 04:33:00,12.6,-1.3,30.17,WSW,248,4.6,4.6,53,0.00,CLR,,0.00,WeatherDisplay:10.37,2013-01-27 09:33:00,
2013-01-27 04:38:00,12.4,-1.5,30.17,WSW,248,3.5,3.5,53,0.00,CLR,,0.00,WeatherDisplay:10.37,2013-01-27 09:38:00,
2013-01-27 04:43:00,12.4,-1.5,30.17,West,270,5.8,5.8,53,0.00,CLR,,0.00,WeatherDisplay:10.37,2013-01-27 09:43:00,
2013-01-27 04:48:00,12.7,-1.6,30.17,West,270,10.4,10.4,52,0.00,CLR,,0.00,WeatherDisplay:10.37,2013-01-27 09:48:00,
2013-01-27 04:53:00,12.7,-1.6,30.18,North,360,6.8,6.8,52,0.00,CLR,,0.00,WeatherDisplay:10.37,2013-01-27 09:53:00,
2013-01-27 04:58:00,12.7,-2.0,30.18,NNW,338,4.7,4.7,51,0.00,CLR,,0.00,WeatherDisplay:10.37,2013-01-27 09:58:00,
2013-01-27 05:03:00,12.6,-1.7,30.17,West,270,5.3,5.3,52,0.00,CLR,,0.00,WeatherDisplay:10.37,2013-01-27 10:03:00,
2013-01-27 05:08:00,12.6,-1.7,30.17,NNW,338,4.7,4.7,52,0.00,CLR,,0.00,WeatherDisplay:10.37,2013-01-27 10:08:00,
2013-01-27 05:13:00,12.6,-2.1,30.18,West,270,3.5,3.5,51,0.00,CLR,,0.00,WeatherDisplay:10.37,2013-01-27 10:13:00,
2013-01-27 05:18:00,12.7,-2.5,30.18,NNW,338,9.2,9.2,50,0.00,CLR,,0.00,WeatherDisplay:10.37,2013-01-27 10:18:00,
2013-01-27 05:23:00,12.7,-2.5,30.18,WNW,292,5.3,5.3,50,0.00,CLR,,0.00,WeatherDisplay:10.37,2013-01-27 10:23:00,
2013-01-27 05:28:00,12.6,-2.6,30.18,WNW,292,2.7,2.7,50,0.00,CLR,,0.00,WeatherDisplay:10.37,2013-01-27 10:28:00,
2013-01-27 05:33:00,12.6,-2.6,30.18,West,270,6.9,6.9,50,0.00,CLR,,0.00,WeatherDisplay:10.37,2013-01-27 10:33:00,
2013-01-27 05:38:00,12.6,-2.6,30.18,NNW,338,7.8,7.8,50,0.00,CLR,,0.00,WeatherDisplay:10.37,2013-01-27 10:38:00,
2013-01-27 05:43:00,12.6,-2.6,30.18,NNW,338,5.8,5.8,50,0.00,CLR,,0.00,WeatherDisplay:10.37,2013-01-27 10:43:00,
2013-01-27 05:48:00,12.4,-2.7,30.19,NNW,338,2.3,2.3,50,0.00,CLR,,0.00,WeatherDisplay:10.37,2013-01-27 10:48:00,
2013-01-27 05:53:00,12.4,-3.2,30.19,West,270,6.9,6.9,49,0.00,CLR,,0.00,WeatherDisplay:10.37,2013-01-27 10:53:00,
2013-01-27 05:58:00,12.4,-3.2,30.19,NW,315,3.5,3.5,49,0.00,CLR,,0.00,WeatherDisplay:10.37,2013-01-27 10:58:00,
2013-01-27 06:03:00,12.7,-3.8,30.19,WNW,292,9.2,9.2,47,0.00,CLR,,0.00,WeatherDisplay:10.37,2013-01-27 11:03:00,
2013-01-27 06:08:00,12.7,-4.2,30.19,WNW,292,5.8,5.8,46,0.00,CLR,,0.00,WeatherDisplay:10.37,2013-01-27 11:08:00,
2013-01-27 06:13:00,12.7,-4.2,30.19,West,270,6.9,6.9,46,0.00,CLR,,0.00,WeatherDisplay:10.37,2013-01-27 11:13:00,
2013-01-27 06:18:00,12.7,-4.7,30.19,NNW,338,5.8,5.8,45,0.00,CLR,,0.00,WeatherDisplay:10.37,2013-01-27 11:18:00,
2013-01-27 06:23:00,12.9,-4.5,30.19,West,270,9.2,9.2,45,0.00,CLR,,0.00,WeatherDisplay:10.37,2013-01-27 11:23:00,
2013-01-27 06:28:00,12.7,-4.7,30.20,WNW,292,7.3,7.3,45,0.00,CLR,,0.00,WeatherDisplay:10.37,2013-01-27 11:28:00,
2013-01-27 06:33:00,13.1,-4.8,30.20,North,360,9.2,9.2,44,0.00,CLR,,0.00,WeatherDisplay:10.37,2013-01-27 11:33:00,
2013-01-27 06:38:00,12.9,-5.0,30.20,West,270,4.6,4.6,44,0.00,CLR,,0.00,WeatherDisplay:10.37,2013-01-27 11:38:00,
2013-01-27 06:44:00,12.9,-5.0,30.20,NNE,22,4.6,4.6,44,0.00,CLR,,0.00,WeatherDisplay:10.37,2013-01-27 11:44:00,
2013-01-27 06:49:00,12.9,-5.0,30.20,West,270,4.7,4.7,44,0.00,CLR,,0.00,WeatherDisplay:10.37,2013-01-27 11:49:00,
2013-01-27 06:54:00,12.9,-5.4,30.20,West,270,6.9,6.9,43,0.00,CLR,,0.00,WeatherDisplay:10.37,2013-01-27 11:54:00,
2013-01-27 06:59:00,12.9,-5.4,30.20,NW,315,3.5,3.6,43,0.00,CLR,,0.00,WeatherDisplay:10.37,2013-01-27 11:59:00,
2013-01-27 07:04:00,12.9,-5.4,30.21,NNW,338,9.2,9.2,43,0.00,CLR,,0.00,WeatherDisplay:10.37,2013-01-27 12:04:00,
2013-01-27 07:09:00,12.9,-5.4,30.21,West,270,5.8,5.8,43,0.00,CLR,,0.00,WeatherDisplay:10.37,2013-01-27 12:09:00,
2013-01-27 07:14:00,12.7,-5.6,30.21,West,270,4.6,4.6,43,0.00,CLR,,0.00,WeatherDisplay:10.37,2013-01-27 12:14:00,
2013-01-27 07:19:00,12.9,-5.0,30.21,NNW,338,6.3,6.3,44,0.00,CLR,,0.00,WeatherDisplay:10.37,2013-01-27 12:19:00,
2013-01-27 07:24:00,13.6,-5.3,30.21,NE,45,10.4,10.4,42,0.00,CLR,,0.00,WeatherDisplay:10.37,2013-01-27 12:24:00,
2013-01-27 07:29:00,13.6,-5.3,30.22,NW,315,6.9,6.9,42,0.00,CLR,,0.00,WeatherDisplay:10.37,2013-01-27 12:29:00,
2013-01-27 07:34:00,13.8,-5.1,30.22,NNW,338,6.9,6.9,42,0.00,CLR,,0.00,WeatherDisplay:10.37,2013-01-27 12:34:00,
2013-01-27 07:39:00,14.0,-4.9,30.23,NW,315,5.8,5.8,42,0.00,CLR,,0.00,WeatherDisplay:10.37,2013-01-27 12:39:00,
2013-01-27 07:44:00,14.0,-4.9,30.23,NNE,22,9.2,9.2,42,0.00,CLR,,0.00,WeatherDisplay:10.37,2013-01-27 12:44:00,
2013-01-27 07:49:00,14.2,-5.2,30.23,NW,315,8.1,8.1,41,0.00,CLR,,0.00,WeatherDisplay:10.37,2013-01-27 12:49:00,
2013-01-27 07:54:00,14.4,-5.1,30.23,West,270,4.6,4.6,41,0.00,CLR,,0.00,WeatherDisplay:10.37,2013-01-27 12:54:00,
2013-01-27 07:59:00,14.7,-4.8,30.23,South,180,4.6,4.6,41,0.00,CLR,,0.00,WeatherDisplay:10.37,2013-01-27 12:59:00,
2013-01-27 08:04:00,14.5,-5.5,30.24,South,180,6.9,6.9,40,0.00,CLR,,0.00,WeatherDisplay:10.37,2013-01-27 13:04:00,
2013-01-27 08:09:00,14.9,-5.1,30.24,NE,45,4.6,4.6,40,0.00,CLR,,0.00,WeatherDisplay:10.37,2013-01-27 13:09:00,
2013-01-27 08:14:00,15.1,-5.5,30.24,SW,225,10.4,10.4,39,0.00,CLR,,0.00,WeatherDisplay:10.37,2013-01-27 13:14:00,
2013-01-27 08:19:00,15.1,-5.5,30.24,NW,315,9.2,9.2,39,0.00,CLR,,0.00,WeatherDisplay:10.37,2013-01-27 13:19:00,
2013-01-27 08:24:00,15.4,-5.2,30.24,North,360,9.2,9.2,39,0.00,CLR,,0.00,WeatherDisplay:10.37,2013-01-27 13:24:00,
2013-01-27 08:29:00,15.4,-5.2,30.24,West,270,5.8,5.8,39,0.00,CLR,,0.00,WeatherDisplay:10.37,2013-01-27 13:29:00,
2013-01-27 08:34:00,15.6,-5.5,30.24,NW,315,8.1,8.1,38,0.00,CLR,,0.00,WeatherDisplay:10.37,2013-01-27 13:34:00,
2013-01-27 08:39:00,16.2,-5.0,30.25,North,360,10.4,10.4,38,0.00,CLR,,0.00,WeatherDisplay:10.37,2013-01-27 13:39:00,
2013-01-27 08:44:00,16.2,-5.0,30.25,North,360,7.3,7.3,38,0.00,CLR,,0.00,WeatherDisplay:10.37,2013-01-27 13:44:00,
2013-01-27 08:49:00,16.3,-5.5,30.26,NW,315,8.1,8.1,37,0.00,CLR,,0.00,WeatherDisplay:10.37,2013-01-27 13:49:00,
2013-01-27 08:54:00,16.3,-4.9,30.26,West,270,6.9,6.9,38,0.00,CLR,,0.00,WeatherDisplay:10.37,2013-01-27 13:54:00,
2013-01-27 08:59:00,16.3,-4.9,30.26,West,270,6.9,6.9,38,0.00,CLR,,0.00,WeatherDisplay:10.37,2013-01-27 13:59:00,
2013-01-27 09:04:00,16.5,-4.7,30.26,NNW,338,6.9,6.9,38,0.00,CLR,,0.00,WeatherDisplay:10.37,2013-01-27 14:04:00,
2013-01-27 09:09:00,16.7,-4.6,30.26,North,360,8.1,8.1,38,0.00,CLR,,0.00,WeatherDisplay:10.37,2013-01-27 14:09:00,
2013-01-27 09:14:00,17.1,-4.2,30.27,South,180,10.4,10.4,38,0.00,CLR,,0.00,WeatherDisplay:10.37,2013-01-27 14:14:00,
2013-01-27 09:19:00,17.2,-4.1,30.27,North,360,10.4,10.4,38,0.00,CLR,,0.00,WeatherDisplay:10.37,2013-01-27 14:19:00,
2013-01-27 09:24:00,17.6,-4.3,30.27,NW,315,15.0,15.0,37,0.00,CLR,,0.00,WeatherDisplay:10.37,2013-01-27 14:24:00,
2013-01-27 09:29:00,18.0,-3.9,30.27,WSW,248,6.9,6.9,37,0.00,CLR,,0.00,WeatherDisplay:10.37,2013-01-27 14:29:00,
2013-01-27 09:34:00,18.1,-3.9,30.27,NNW,338,6.9,6.9,37,0.00,CLR,,0.00,WeatherDisplay:10.37,2013-01-27 14:34:00,
2013-01-27 09:39:00,18.5,-4.1,30.27,NNE,22,9.2,9.2,36,0.00,CLR,,0.00,WeatherDisplay:10.37,2013-01-27 14:39:00,
2013-01-27 09:44:00,18.5,-4.1,30.27,South,180,8.1,8.1,36,0.00,CLR,,0.00,WeatherDisplay:10.37,2013-01-27 14:44:00,
2013-01-27 09:49:00,19.0,-3.6,30.28,NNE,22,5.3,5.3,36,0.00,CLR,,0.00,WeatherDisplay:10.37,2013-01-27 14:49:00,
2013-01-27 09:54:00,19.0,-3.6,30.28,South,180,10.4,10.4,36,0.00,CLR,,0.00,WeatherDisplay:10.37,2013-01-27 14:54:00,
2013-01-27 09:59:00,19.0,-4.2,30.28,WNW,292,8.3,8.3,35,0.00,CLR,,0.00,WeatherDisplay:10.37,2013-01-27 14:59:00,
2013-01-27 10:04:00,19.4,-3.8,30.28,West,270,8.1,8.1,35,0.00,CLR,,0.00,WeatherDisplay:10.37,2013-01-27 15:04:00,
2013-01-27 10:09:00,19.4,-3.8,30.28,WSW,248,8.1,8.1,35,0.00,CLR,,0.00,WeatherDisplay:10.37,2013-01-27 15:09:00,
2013-01-27 10:14:00,19.8,-3.5,30.28,North,360,11.5,11.5,35,0.00,CLR,,0.00,WeatherDisplay:10.37,2013-01-27 15:14:00,
2013-01-27 10:19:00,19.8,-3.5,30.28,North,360,10.4,10.4,35,0.00,CLR,,0.00,WeatherDisplay:10.37,2013-01-27 15:19:00,
2013-01-27 10:24:00,20.7,-2.7,30.28,North,360,4.6,4.6,35,0.00,CLR,,0.00,WeatherDisplay:10.37,2013-01-27 15:24:00,
2013-01-27 10:29:00,20.5,-3.5,30.28,NNW,338,8.1,8.1,34,0.00,CLR,,0.00,WeatherDisplay:10.37,2013-01-27 15:29:00,
2013-01-27 10:34:00,20.7,-3.3,30.28,NNW,338,6.9,6.9,34,0.00,CLR,,0.00,WeatherDisplay:10.37,2013-01-27 15:34:00,
2013-01-27 10:39:00,20.8,-3.2,30.29,NW,315,10.4,10.4,34,0.00,CLR,,0.00,WeatherDisplay:10.37,2013-01-27 15:39:00,
2013-01-27 10:44:00,21.2,-2.9,30.29,West,270,8.1,8.1,34,0.00,CLR,,0.00,WeatherDisplay:10.37,2013-01-27 15:44:00,
2013-01-27 10:49:00,21.6,-2.5,30.29,SW,225,8.8,8.8,34,0.00,CLR,,0.00,WeatherDisplay:10.37,2013-01-27 15:49:00,
2013-01-27 10:54:00,21.7,-2.4,30.29,WNW,292,9.2,9.2,34,0.00,CLR,,0.00,WeatherDisplay:10.37,2013-01-27 15:54:00,
2013-01-27 10:59:00,21.9,-2.2,30.29,NW,315,9.4,9.4,34,0.00,CLR,,0.00,WeatherDisplay:10.37,2013-01-27 15:59:00,
2013-01-27 11:04:00,21.7,-2.4,30.30,NNE,22,10.4,10.4,34,0.00,CLR,,0.00,WeatherDisplay:10.37,2013-01-27 16:04:00,
2013-01-27 11:09:00,21.7,-3.0,30.30,WNW,292,10.9,10.9,33,0.00,CLR,,0.00,WeatherDisplay:10.37,2013-01-27 16:09:00,
2013-01-27 11:14:00,21.7,-3.0,30.28,WNW,292,10.9,10.9,33,0.00,CLR,,0.00,WeatherDisplay:10.37,2013-01-27 16:14:00,
2013-01-27 11:19:00,21.9,-2.2,30.28,West,270,9.2,9.2,34,0.00,CLR,,0.00,WeatherDisplay:10.37,2013-01-27 16:19:00,
2013-01-27 11:24:00,22.5,-1.7,30.28,NNW,338,10.9,10.9,34,0.00,CLR,,0.00,WeatherDisplay:10.37,2013-01-27 16:24:00,
2013-01-27 11:29:00,22.3,-1.9,30.28,WNW,292,8.1,8.1,34,0.00,CLR,,0.00,WeatherDisplay:10.37,2013-01-27 16:29:00,
2013-01-27 11:34:00,22.8,-1.4,30.28,WNW,292,10.4,10.9,34,0.00,CLR,,0.00,WeatherDisplay:10.37,2013-01-27 16:34:00,
2013-01-27 11:39:00,22.8,-2.1,30.28,NW,315,11.5,11.5,33,0.00,CLR,,0.00,WeatherDisplay:10.37,2013-01-27 16:39:00,
2013-01-27 11:44:00,23.2,-1.7,30.28,NW,315,10.4,10.4,33,0.00,CLR,,0.00,WeatherDisplay:10.37,2013-01-27 16:44:00,
2013-01-27 11:49:00,23.5,-1.4,30.28,NW,315,9.2,9.2,33,0.00,CLR,,0.00,WeatherDisplay:10.37,2013-01-27 16:49:00,
2013-01-27 11:54:00,23.5,-1.4,30.28,West,270,12.7,12.7,33,0.00,CLR,,0.00,WeatherDisplay:10.37,2013-01-27 16:54:00,
2013-01-27 11:59:00,24.1,-0.9,30.28,NW,315,6.8,6.8,33,0.00,CLR,,0.00,WeatherDisplay:10.37,2013-01-27 16:59:00,
2013-01-27 12:04:00,24.1,-1.6,30.27,North,360,9.9,9.9,32,0.00,CLR,,0.00,WeatherDisplay:10.37,2013-01-27 17:04:00,
2013-01-27 12:09:00,24.6,-1.1,30.27,North,360,9.2,9.2,32,0.00,CLR,,0.00,WeatherDisplay:10.37,2013-01-27 17:09:00,
2013-01-27 12:14:00,24.6,-1.1,30.27,NNW,338,6.9,6.9,32,0.00,CLR,,0.00,WeatherDisplay:10.37,2013-01-27 17:14:00,
2013-01-27 12:19:00,25.0,-0.8,30.27,West,270,9.2,9.2,32,0.00,CLR,,0.00,WeatherDisplay:10.37,2013-01-27 17:19:00,
2013-01-27 12:24:00,25.0,-0.8,30.27,West,270,8.1,8.1,32,0.00,CLR,,0.00,WeatherDisplay:10.37,2013-01-27 17:24:00,
2013-01-27 12:30:00,25.7,-0.8,30.26,NE,45,11.5,11.5,31,0.00,CLR,,0.00,WeatherDisplay:10.37,2013-01-27 17:30:00,
2013-01-27 12:35:00,25.5,-0.3,30.26,SSE,158,8.1,8.1,32,0.00,CLR,,0.00,WeatherDisplay:10.37,2013-01-27 17:35:00,
2013-01-27 12:40:00,25.7,-0.1,30.26,NNW,338,9.4,9.4,32,0.00,CLR,,0.00,WeatherDisplay:10.37,2013-01-27 17:40:00,
2013-01-27 12:45:00,25.9,-0.6,30.26,WNW,292,9.2,9.2,31,0.00,CLR,,0.00,WeatherDisplay:10.37,2013-01-27 17:45:00,
2013-01-27 12:50:00,25.7,-0.8,30.27,SW,225,13.8,13.8,31,0.00,CLR,,0.00,WeatherDisplay:10.37,2013-01-27 17:50:00,
2013-01-27 12:55:00,26.1,-0.4,30.27,NW,314,6.0,12.0,31,0.00,CLR,,0.00,WeatherDisplay:10.37,2013-01-27 17:55:00,
2013-01-27 13:00:00,26.1,-0.5,30.27,NNW,338,15.0,15.0,31,0.00,CLR,,0.00,WeatherDisplay:10.37,2013-01-27 18:00:00,
2013-01-27 13:05:00,26.1,-0.5,30.26,North,350,6.0,11.0,31,0.00,CLR,,0.00,WeatherDisplay:10.37,2013-01-27 18:05:00,
2013-01-27 13:10:00,26.1,-0.5,30.26,North,3,7.0,7.0,31,0.00,CLR,,0.00,WeatherDisplay:10.37,2013-01-27 18:10:00,
2013-01-27 13:15:00,26.6,-0.7,30.25,NNW,338,11.5,11.5,30,0.00,CLR,,0.00,WeatherDisplay:10.37,2013-01-27 18:15:00,
2013-01-27 13:20:00,26.1,-1.1,30.25,NNW,329,12.0,14.0,30,0.00,CLR,,0.00,WeatherDisplay:10.37,2013-01-27 18:20:00,
2013-01-27 13:25:00,26.1,-0.5,30.26,South,180,10.4,10.4,31,0.00,CLR,,0.00,WeatherDisplay:10.37,2013-01-27 18:25:00,
2013-01-27 13:30:00,26.6,0.0,30.26,WNW,292,7.3,7.3,31,0.00,CLR,,0.00,WeatherDisplay:10.37,2013-01-27 18:30:00,
2013-01-27 13:35:00,27.3,0.6,30.26,NNE,22,13.8,13.8,31,0.00,CLR,,0.00,WeatherDisplay:10.37,2013-01-27 18:35:00,
2013-01-27 13:40:00,27.0,0.3,30.26,NW,315,15.0,15.0,31,0.00,CLR,,0.00,WeatherDisplay:10.37,2013-01-27 18:40:00,
2013-01-27 13:45:00,26.6,0.0,30.26,NE,45,10.4,10.4,31,0.00,CLR,,0.00,WeatherDisplay:10.37,2013-01-27 18:45:00,
2013-01-27 13:50:00,27.0,0.3,30.26,NW,315,13.0,13.0,31,0.00,CLR,,0.00,WeatherDisplay:10.37,2013-01-27 18:50:00,
2013-01-27 13:55:00,27.7,0.9,30.26,NNW,338,3.7,3.7,31,0.00,CLR,,0.00,WeatherDisplay:10.37,2013-01-27 18:55:00,
2013-01-27 14:00:00,27.1,-0.3,30.26,West,270,10.4,10.4,30,0.00,CLR,,0.00,WeatherDisplay:10.37,2013-01-27 19:00:00,
2013-01-27 14:05:00,27.1,0.4,30.26,NNW,338,10.4,10.4,31,0.00,CLR,,0.00,WeatherDisplay:10.37,2013-01-27 19:05:00,
2013-01-27 14:10:00,27.3,-0.1,30.26,NNE,22,5.8,5.8,30,0.00,CLR,,0.00,WeatherDisplay:10.37,2013-01-27 19:10:00,
2013-01-27 14:15:00,27.1,-1.0,30.26,WNW,292,8.8,8.8,29,0.00,CLR,,0.00,WeatherDisplay:10.37,2013-01-27 19:15:00,
2013-01-27 14:20:00,27.5,-0.7,30.26,ENE,68,9.2,9.2,29,0.00,CLR,,0.00,WeatherDisplay:10.37,2013-01-27 19:20:00,
2013-01-27 14:25:00,27.5,-0.7,30.26,NNE,22,6.9,6.9,29,0.00,CLR,,0.00,WeatherDisplay:10.37,2013-01-27 19:25:00,
2013-01-27 14:30:00,28.0,-1.0,30.26,NNE,22,10.4,10.4,28,0.00,CLR,,0.00,WeatherDisplay:10.37,2013-01-27 19:30:00,
2013-01-27 14:35:00,27.3,-1.6,30.26,WNW,292,13.8,13.8,28,0.00,CLR,,0.00,WeatherDisplay:10.37,2013-01-27 19:35:00,
2013-01-27 14:40:00,27.7,-2.0,30.26,NNE,22,11.5,11.5,27,0.00,CLR,,0.00,WeatherDisplay:10.37,2013-01-27 19:40:00,
2013-01-27 14:45:00,27.7,-2.8,30.26,NNE,22,9.2,9.2,26,0.00,CLR,,0.00,WeatherDisplay:10.37,2013-01-27 19:45:00,
2013-01-27 14:50:00,28.2,-2.4,30.26,WNW,292,5.8,5.8,26,0.00,CLR,,0.00,WeatherDisplay:10.37,2013-01-27 19:50:00,
2013-01-27 14:55:00,27.9,-2.6,30.26,NNE,22,5.8,5.8,26,0.00,CLR,,0.00,WeatherDisplay:10.37,2013-01-27 19:55:00,
2013-01-27 15:00:00,27.7,-2.8,30.26,NNW,338,3.7,3.7,26,0.00,CLR,,0.00,WeatherDisplay:10.37,2013-01-27 20:00:00,
2013-01-27 15:05:00,27.7,-3.6,30.26,NW,315,6.9,6.9,25,0.00,CLR,,0.00,WeatherDisplay:10.37,2013-01-27 20:05:00,
2013-01-27 15:10:00,27.7,-3.6,30.26,NW,315,8.1,8.1,25,0.00,CLR,,0.00,WeatherDisplay:10.37,2013-01-27 20:10:00,
2013-01-27 15:15:00,27.7,-3.6,30.25,NW,315,5.8,5.8,25,0.00,CLR,,0.00,WeatherDisplay:10.37,2013-01-27 20:15:00,
2013-01-27 15:20:00,28.2,-3.2,30.25,West,270,10.4,10.4,25,0.00,CLR,,0.00,WeatherDisplay:10.37,2013-01-27 20:20:00,
2013-01-27 15:25:00,27.9,-4.3,30.26,NW,315,6.9,6.9,24,0.00,CLR,,0.00,WeatherDisplay:10.37,2013-01-27 20:25:00,
2013-01-27 15:30:00,28.0,-3.4,30.26,NNW,338,9.4,9.4,25,0.00,CLR,,0.00,WeatherDisplay:10.37,2013-01-27 20:30:00,
2013-01-27 15:35:00,28.0,-4.2,30.26,NNW,338,11.5,11.5,24,0.00,CLR,,0.00,WeatherDisplay:10.37,2013-01-27 20:35:00,
2013-01-27 15:40:00,27.7,-4.5,30.26,West,270,11.5,11.5,24,0.00,CLR,,0.00,WeatherDisplay:10.37,2013-01-27 20:40:00,
2013-01-27 15:45:00,27.5,-4.6,30.26,NW,315,13.5,13.5,24,0.00,CLR,,0.00,WeatherDisplay:10.37,2013-01-27 20:45:00,
2013-01-27 15:50:00,27.5,-5.5,30.26,NNW,338,9.2,9.2,23,0.00,CLR,,0.00,WeatherDisplay:10.37,2013-01-27 20:50:00,
2013-01-27 15:55:00,27.7,-5.4,30.26,South,180,6.3,6.3,23,0.00,CLR,,0.00,WeatherDisplay:10.37,2013-01-27 20:55:00,
2013-01-27 16:00:00,27.5,-5.5,30.26,WSW,248,4.7,4.7,23,0.00,CLR,,0.00,WeatherDisplay:10.37,2013-01-27 21:00:00,
2013-01-27 16:05:00,27.7,-5.4,30.26,East,90,5.8,5.8,23,0.00,CLR,,0.00,WeatherDisplay:10.37,2013-01-27 21:05:00,
2013-01-27 16:10:00,27.3,-5.7,30.26,NNW,338,5.8,5.8,23,0.00,CLR,,0.00,WeatherDisplay:10.37,2013-01-27 21:10:00,
2013-01-27 16:15:00,27.0,-5.1,30.27,NNE,22,5.8,5.8,24,0.00,CLR,,0.00,WeatherDisplay:10.37,2013-01-27 21:15:00,
2013-01-27 16:20:00,27.0,-5.1,30.27,North,360,11.5,11.5,24,0.00,CLR,,0.00,WeatherDisplay:10.37,2013-01-27 21:20:00,
2013-01-27 16:25:00,26.6,-5.4,30.27,WNW,292,5.8,5.8,24,0.00,CLR,,0.00,WeatherDisplay:10.37,2013-01-27 21:25:00,
2013-01-27 16:30:00,26.4,-5.6,30.27,NNE,22,9.2,9.2,24,0.00,CLR,,0.00,WeatherDisplay:10.37,2013-01-27 21:30:00,
2013-01-27 16:35:00,26.2,-5.8,30.27,West,270,7.8,7.8,24,0.00,CLR,,0.00,WeatherDisplay:10.37,2013-01-27 21:35:00,
2013-01-27 16:40:00,26.1,-5.8,30.28,West,270,6.9,6.9,24,0.00,CLR,,0.00,WeatherDisplay:10.37,2013-01-27 21:40:00,
2013-01-27 16:45:00,26.1,-5.8,30.28,WNW,292,8.1,8.1,24,0.00,CLR,,0.00,WeatherDisplay:10.37,2013-01-27 21:45:00,
2013-01-27 16:50:00,25.9,-5.2,30.28,NW,315,6.9,6.9,25,0.00,CLR,,0.00,WeatherDisplay:10.37,2013-01-27 21:50:00,
2013-01-27 16:55:00,25.5,-5.5,30.28,NNW,338,4.6,4.6,25,0.00,CLR,,0.00,WeatherDisplay:10.37,2013-01-27 21:55:00,
2013-01-27 17:00:00,25.3,-5.7,30.28,West,270,5.8,5.8,25,0.00,CLR,,0.00,WeatherDisplay:10.37,2013-01-27 22:00:00,
2013-01-27 17:05:00,25.2,-5.8,30.29,North,360,7.8,7.8,25,0.00,CLR,,0.00,WeatherDisplay:10.37,2013-01-27 22:05:00,
2013-01-27 17:10:00,25.3,-5.7,30.29,North,360,9.2,9.2,25,0.00,CLR,,0.00,WeatherDisplay:10.37,2013-01-27 22:10:00,
2013-01-27 17:15:00,25.0,-5.9,30.29,NW,315,6.3,6.3,25,0.00,CLR,,0.00,WeatherDisplay:10.37,2013-01-27 22:15:00,
2013-01-27 17:21:00,24.8,-5.3,30.29,NW,315,4.6,4.6,26,0.00,CLR,,0.00,WeatherDisplay:10.37,2013-01-27 22:21:00,
2013-01-27 17:26:00,24.4,-5.6,30.30,NW,315,5.8,5.8,26,0.00,CLR,,0.00,WeatherDisplay:10.37,2013-01-27 22:26:00,
2013-01-27 17:31:00,25.0,-5.9,30.30,NNE,22,5.8,5.8,25,0.00,CLR,,0.00,WeatherDisplay:10.37,2013-01-27 22:31:00,
2013-01-27 17:36:00,25.0,-5.9,30.30,NW,315,5.8,5.8,25,0.00,CLR,,0.00,WeatherDisplay:10.37,2013-01-27 22:36:00,
2013-01-27 17:41:00,24.8,-6.1,30.31,SE,135,5.8,5.8,25,0.00,CLR,,0.00,WeatherDisplay:10.37,2013-01-27 22:41:00,
2013-01-27 17:46:00,24.8,-6.1,30.31,SW,225,5.8,5.8,25,0.00,CLR,,0.00,WeatherDisplay:10.37,2013-01-27 22:46:00,
2013-01-27 17:51:00,24.4,-6.5,30.31,WNW,292,2.3,2.3,25,0.00,CLR,,0.00,WeatherDisplay:10.37,2013-01-27 22:51:00,
2013-01-27 17:56:00,24.3,-6.5,30.31,NW,315,5.8,5.8,25,0.00,CLR,,0.00,WeatherDisplay:10.37,2013-01-27 22:56:00,
2013-01-27 18:01:00,24.3,-5.7,30.32,West,270,5.8,5.8,26,0.00,CLR,,0.00,WeatherDisplay:10.37,2013-01-27 23:01:00,
2013-01-27 18:06:00,24.3,-5.7,30.32,West,270,4.6,4.6,26,0.00,CLR,,0.00,WeatherDisplay:10.37,2013-01-27 23:06:00,
2013-01-27 18:11:00,24.3,-5.7,30.32,West,270,3.5,3.5,26,0.00,CLR,,0.00,WeatherDisplay:10.37,2013-01-27 23:11:00,
2013-01-27 18:16:00,23.9,-6.1,30.32,ENE,68,6.9,6.9,26,0.00,CLR,,0.00,WeatherDisplay:10.37,2013-01-27 23:16:00,
2013-01-27 18:21:00,23.7,-6.3,30.32,NW,315,5.8,5.8,26,0.00,CLR,,0.00,WeatherDisplay:10.37,2013-01-27 23:21:00,
2013-01-27 18:26:00,23.4,-6.5,30.32,West,270,8.1,8.1,26,0.00,CLR,,0.00,WeatherDisplay:10.37,2013-01-27 23:26:00,
2013-01-27 18:31:00,23.4,-6.5,30.32,SE,135,4.6,4.6,26,0.00,CLR,,0.00,WeatherDisplay:10.37,2013-01-27 23:31:00,
2013-01-27 18:36:00,23.2,-6.7,30.32,South,180,4.6,4.6,26,0.00,CLR,,0.00,WeatherDisplay:10.37,2013-01-27 23:36:00,
2013-01-27 18:41:00,22.8,-7.0,30.33,SW,225,2.7,2.7,26,0.00,CLR,,0.00,WeatherDisplay:10.37,2013-01-27 23:41:00,
2013-01-27 18:46:00,22.8,-7.0,30.33,NNE,22,4.6,4.6,26,0.00,CLR,,0.00,WeatherDisplay:10.37,2013-01-27 23:46:00,
2013-01-27 18:51:00,22.8,-7.0,30.32,WNW,292,4.6,4.6,26,0.00,CLR,,0.00,WeatherDisplay:10.37,2013-01-27 23:51:00,
2013-01-27 18:56:00,22.8,-7.0,30.32,NW,315,6.9,6.9,26,0.00,CLR,,0.00,WeatherDisplay:10.37,2013-01-27 23:56:00,
2013-01-27 19:01:00,22.6,-7.2,30.32,North,360,10.4,10.4,26,0.00,CLR,,0.00,WeatherDisplay:10.37,2013-01-28 00:01:00,
2013-01-27 19:06:00,22.6,-7.2,30.33,SW,225,6.3,6.3,26,0.00,CLR,,0.00,WeatherDisplay:10.37,2013-01-28 00:06:00,
2013-01-27 19:11:00,22.5,-7.3,30.33,North,360,3.5,3.5,26,0.00,CLR,,0.00,WeatherDisplay:10.37,2013-01-28 00:11:00,
2013-01-27 19:16:00,22.3,-7.5,30.33,WSW,248,6.9,6.9,26,0.00,CLR,,0.00,WeatherDisplay:10.37,2013-01-28 00:16:00,
2013-01-27 19:21:00,22.1,-7.6,30.33,West,270,5.8,5.8,26,0.00,CLR,,0.00,WeatherDisplay:10.37,2013-01-28 00:21:00,
2013-01-27 19:26:00,21.9,-7.0,30.34,North,360,6.9,6.9,27,0.00,CLR,,0.00,WeatherDisplay:10.37,2013-01-28 00:26:00,
2013-01-27 19:31:00,21.7,-7.2,30.34,NW,315,3.5,3.5,27,0.00,CLR,,0.00,WeatherDisplay:10.37,2013-01-28 00:31:00,
2013-01-27 19:36:00,21.6,-7.3,30.34,WNW,292,5.8,5.8,27,0.00,CLR,,0.00,WeatherDisplay:10.37,2013-01-28 00:36:00,
2013-01-27 19:41:00,21.6,-7.3,30.34,NW,315,6.3,6.3,27,0.00,CLR,,0.00,WeatherDisplay:10.37,2013-01-28 00:41:00,
2013-01-27 19:46:00,21.2,-7.6,30.34,WNW,292,5.8,5.8,27,0.00,CLR,,0.00,WeatherDisplay:10.37,2013-01-28 00:46:00,
2013-01-27 19:51:00,21.0,-7.1,30.34,West,270,4.6,4.6,28,0.00,CLR,,0.00,WeatherDisplay:10.37,2013-01-28 00:51:00,
2013-01-27 19:56:00,21.0,-7.1,30.34,WNW,292,6.9,6.9,28,0.00,CLR,,0.00,WeatherDisplay:10.37,2013-01-28 00:56:00,
2013-01-27 20:01:00,21.0,-7.1,30.33,NNW,338,8.1,8.1,28,0.00,CLR,,0.00,WeatherDisplay:10.37,2013-01-28 01:01:00,
2013-01-27 20:06:00,21.0,-7.1,30.33,ENE,68,3.5,3.5,28,0.00,CLR,,0.00,WeatherDisplay:10.37,2013-01-28 01:06:00,
2013-01-27 20:11:00,20.7,-7.3,30.33,West,270,5.8,5.8,28,0.00,CLR,,0.00,WeatherDisplay:10.37,2013-01-28 01:11:00,
2013-01-27 20:16:00,20.5,-7.5,30.33,WNW,292,2.3,2.3,28,0.00,CLR,,0.00,WeatherDisplay:10.37,2013-01-28 01:16:00,
2013-01-27 20:21:00,20.3,-7.0,30.33,NNE,22,5.8,5.8,29,0.00,CLR,,0.00,WeatherDisplay:10.37,2013-01-28 01:21:00,
2013-01-27 20:26:00,20.1,-7.1,30.34,WNW,292,5.8,5.8,29,0.00,CLR,,0.00,WeatherDisplay:10.37,2013-01-28 01:26:00,
2013-01-27 20:31:00,20.1,-7.1,30.34,WNW,292,2.3,2.3,29,0.00,CLR,,0.00,WeatherDisplay:10.37,2013-01-28 01:31:00,
2013-01-27 20:36:00,20.1,-7.1,30.34,WNW,292,8.1,8.1,29,0.00,CLR,,0.00,WeatherDisplay:10.37,2013-01-28 01:36:00,
2013-01-27 20:41:00,20.3,-7.0,30.33,WNW,292,9.4,9.4,29,0.00,CLR,,0.00,WeatherDisplay:10.37,2013-01-28 01:41:00,
2013-01-27 20:46:00,20.1,-6.4,30.33,West,270,6.3,6.3,30,0.00,CLR,,0.00,WeatherDisplay:10.37,2013-01-28 01:46:00,
2013-01-27 20:51:00,20.1,-6.4,30.33,West,270,5.8,5.8,30,0.00,CLR,,0.00,WeatherDisplay:10.37,2013-01-28 01:51:00,
2013-01-27 20:56:00,20.1,-5.8,30.33,NNE,22,5.8,5.8,31,0.00,CLR,,0.00,WeatherDisplay:10.37,2013-01-28 01:56:00,
2013-01-27 21:01:00,19.8,-6.0,30.33,NE,45,6.3,6.3,31,0.00,CLR,,0.00,WeatherDisplay:10.37,2013-01-28 02:01:00,
2013-01-27 21:06:00,20.1,-6.4,30.33,West,270,9.2,9.2,30,0.00,CLR,,0.00,WeatherDisplay:10.37,2013-01-28 02:06:00,
2013-01-27 21:11:00,19.9,-5.9,30.33,North,360,3.5,3.5,31,0.00,CLR,,0.00,WeatherDisplay:10.37,2013-01-28 02:11:00,
2013-01-27 21:16:00,20.1,-5.8,30.33,West,270,5.8,5.8,31,0.00,CLR,,0.00,WeatherDisplay:10.37,2013-01-28 02:16:00,
2013-01-27 21:21:00,19.9,-5.9,30.33,ESE,112,3.5,3.5,31,0.00,CLR,,0.00,WeatherDisplay:10.37,2013-01-28 02:21:00,
2013-01-27 21:26:00,19.6,-6.2,30.32,NE,45,3.5,3.5,31,0.00,CLR,,0.00,WeatherDisplay:10.37,2013-01-28 02:26:00,
2013-01-27 21:31:00,19.4,-6.4,30.32,NNW,338,4.6,4.6,31,0.00,CLR,,0.00,WeatherDisplay:10.37,2013-01-28 02:31:00,
2013-01-27 21:36:00,19.2,-5.9,30.32,WNW,292,0.0,0.0,32,0.00,CLR,,0.00,WeatherDisplay:10.37,2013-01-28 02:36:00,
2013-01-27 21:41:00,18.9,-6.2,30.33,SW,225,0.0,0.0,32,0.00,CLR,,0.00,WeatherDisplay:10.37,2013-01-28 02:41:00,
2013-01-27 21:46:00,18.7,-5.7,30.33,WNW,292,2.3,2.3,33,0.00,CLR,,0.00,WeatherDisplay:10.37,2013-01-28 02:46:00,
2013-01-27 21:51:00,18.5,-5.9,30.33,NNE,22,4.6,4.6,33,0.00,CLR,,0.00,WeatherDisplay:10.37,2013-01-28 02:51:00,
2013-01-27 21:56:00,18.3,-6.1,30.33,West,270,2.7,2.7,33,0.00,CLR,,0.00,WeatherDisplay:10.37,2013-01-28 02:56:00,
2013-01-27 22:01:00,18.3,-5.4,30.33,West,270,4.2,4.2,34,0.00,CLR,,0.00,WeatherDisplay:10.37,2013-01-28 03:01:00,
2013-01-27 22:06:00,18.3,-5.4,30.33,West,270,1.1,1.1,34,0.00,CLR,,0.00,WeatherDisplay:10.37,2013-01-28 03:06:00,
2013-01-27 22:11:00,18.1,-5.6,30.33,West,270,2.7,2.7,34,0.00,CLR,,0.00,WeatherDisplay:10.37,2013-01-28 03:11:00,
2013-01-27 22:16:00,18.1,-5.6,30.33,West,270,2.3,2.3,34,0.00,CLR,,0.00,WeatherDisplay:10.37,2013-01-28 03:16:00,
2013-01-27 22:21:00,18.0,-5.1,30.33,SSW,202,2.7,2.7,35,0.00,CLR,,0.00,WeatherDisplay:10.37,2013-01-28 03:21:00,
2013-01-27 22:26:00,18.0,-5.1,30.33,SSE,158,2.3,2.3,35,0.00,CLR,,0.00,WeatherDisplay:10.37,2013-01-28 03:26:00,
2013-01-27 22:31:00,17.8,-5.3,30.33,West,270,1.1,1.1,35,0.00,CLR,,0.00,WeatherDisplay:10.37,2013-01-28 03:31:00,
2013-01-27 22:36:00,17.6,-4.9,30.33,SW,225,1.1,1.1,36,0.00,CLR,,0.00,WeatherDisplay:10.37,2013-01-28 03:36:00,
2013-01-27 22:42:00,17.4,-3.9,30.33,West,270,2.3,2.3,38,0.00,CLR,,0.00,WeatherDisplay:10.37,2013-01-28 03:42:00,
2013-01-27 22:47:00,17.2,-4.7,30.33,SW,225,2.3,2.3,37,0.00,CLR,,0.00,WeatherDisplay:10.37,2013-01-28 03:47:00,
2013-01-27 22:52:00,17.4,-4.5,30.34,SSW,202,2.3,2.3,37,0.00,CLR,,0.00,WeatherDisplay:10.37,2013-01-28 03:52:00,
2013-01-27 22:57:00,17.1,-4.2,30.34,SW,225,2.3,2.3,38,0.00,CLR,,0.00,WeatherDisplay:10.37,2013-01-28 03:57:00,
2013-01-27 23:02:00,17.1,-4.2,30.35,South,180,1.1,0.0,38,0.00,CLR,,0.00,WeatherDisplay:10.37,2013-01-28 04:02:00,
2013-01-27 23:07:00,17.2,-4.7,30.35,North,360,2.3,2.3,37,0.00,CLR,,0.00,WeatherDisplay:10.37,2013-01-28 04:07:00,
2013-01-27 23:12:00,17.4,-3.9,30.35,SW,225,3.5,3.5,38,0.00,CLR,,0.00,WeatherDisplay:10.37,2013-01-28 04:12:00,
2013-01-27 23:17:00,17.2,-4.7,30.35,NW,315,2.3,2.3,37,0.00,CLR,,0.00,WeatherDisplay:10.37,2013-01-28 04:17:00,
2013-01-27 23:22:00,17.2,-4.7,30.35,WNW,292,2.3,2.3,37,0.00,CLR,,0.00,WeatherDisplay:10.37,2013-01-28 04:22:00,
2013-01-27 23:27:00,17.2,-4.1,30.36,WSW,248,4.6,4.6,38,0.00,CLR,,0.00,WeatherDisplay:10.37,2013-01-28 04:27:00,
2013-01-27 23:32:00,17.2,-4.1,30.36,WSW,248,4.6,4.6,38,0.00,CLR,,0.00,WeatherDisplay:10.37,2013-01-28 04:32:00,
2013-01-27 23:37:00,17.1,-4.2,30.36,West,270,1.1,1.1,38,0.00,CLR,,0.00,WeatherDisplay:10.37,2013-01-28 04:37:00,
2013-01-27 23:42:00,16.9,-3.8,30.36,NE,45,1.1,1.1,39,0.00,CLR,,0.00,WeatherDisplay:10.37,2013-01-28 04:42:00,
2013-01-27 23:47:00,16.7,-3.0,30.36,East,90,2.3,2.3,41,0.00,CLR,,0.00,WeatherDisplay:10.37,2013-01-28 04:47:00,
2013-01-27 23:52:00,16.3,-3.3,30.35,NNE,22,0.0,0.0,41,0.00,CLR,,0.00,WeatherDisplay:10.37,2013-01-28 04:52:00,
2013-01-27 23:57:00,16.3,-3.8,30.35,WSW,248,1.1,1.1,40,0.00,CLR,,0.00,WeatherDisplay:10.37,2013-01-28 04:57:00,